TimeEDT,TemperatureF,Dew PointF,Humidity,Sea Level PressureIn,VisibilityMPH,Wind Direction,Wind SpeedMPH,Gust SpeedMPH,PrecipitationIn,Events,Conditions,WindDirDegrees,DateUTC
12:15 AM,55.4,51.8,88,30.15,10.0,SE,5.8,-,N/A,,Overcast,140,2013-05-20 04:15:00
12:35 AM,55.4,51.8,88,30.14,10.0,SE,8.1,-,N/A,,Overcast,140,2013-05-20 04:35:00
12:55 AM,55.4,51.8,88,30.14,10.0,Calm,Calm,-,N/A,,Overcast,0,2013-05-20 04:55:00
1:15 AM,55.4,51.8,88,30.13,10.0,SE,8.1,-,N/A,,Overcast,140,2013-05-20 05:15:00
1:35 AM,55.4,51.8,88,30.12,10.0,South,6.9,-,N/A,,Overcast,170,2013-05-20 05:35:00
1:55 AM,55.4,51.8,88,30.11,10.0,SE,4.6,-,N/A,,Overcast,130,2013-05-20 05:55:00
2:15 AM,55.4,51.8,88,30.10,10.0,SE,8.1,-,N/A,,Overcast,130,2013-05-20 06:15:00
2:35 AM,55.4,51.8,88,30.10,10.0,ESE,3.5,-,N/A,,Overcast,110,2013-05-20 06:35:00
2:55 AM,55.4,51.8,88,30.09,10.0,ESE,5.8,-,N/A,,Overcast,120,2013-05-20 06:55:00
3:15 AM,55.4,51.8,88,30.08,10.0,ESE,4.6,-,N/A,,Overcast,120,2013-05-20 07:15:00
3:35 AM,55.4,51.8,88,30.07,10.0,ESE,3.5,-,N/A,,Overcast,120,2013-05-20 07:35:00
3:55 AM,55.4,53.6,94,30.07,10.0,NNE,3.5,-,N/A,,Overcast,20,2013-05-20 07:55:00
4:15 AM,53.6,53.6,100,30.07,10.0,Calm,Calm,-,N/A,,Overcast,0,2013-05-20 08:15:00
4:35 AM,53.6,53.6,100,30.06,10.0,South,3.5,-,N/A,,Overcast,170,2013-05-20 08:35:00
4:55 AM,53.6,53.6,100,30.05,10.0,SE,5.8,-,N/A,,Overcast,130,2013-05-20 08:55:00
5:15 AM,53.6,53.6,100,30.06,10.0,Calm,Calm,-,N/A,,Overcast,0,2013-05-20 09:15:00
5:35 AM,55.4,53.6,94,30.06,10.0,Calm,Calm,-,N/A,,Overcast,0,2013-05-20 09:35:00
5:55 AM,55.4,53.6,94,30.06,10.0,Calm,Calm,-,N/A,,Overcast,0,2013-05-20 09:55:00
6:15 AM,55.4,53.6,94,30.06,10.0,ESE,3.5,-,N/A,,Overcast,110,2013-05-20 10:15:00
6:35 AM,55.4,53.6,94,30.06,10.0,NE,4.6,-,N/A,,Overcast,50,2013-05-20 10:35:00
6:55 AM,55.4,53.6,94,30.06,10.0,Calm,Calm,-,N/A,,Overcast,0,2013-05-20 10:55:00
7:15 AM,55.4,53.6,94,30.07,5.0,North,4.6,-,N/A,,Overcast,10,2013-05-20 11:15:00
7:35 AM,55.4,55.4,100,30.07,10.0,Calm,Calm,-,N/A,,Overcast,0,2013-05-20 11:35:00
7:55 AM,57.2,55.4,94,30.07,6.0,South,4.6,-,N/A,,Overcast,170,2013-05-20 11:55:00
8:15 AM,57.2,55.4,94,30.07,10.0,Calm,Calm,-,N/A,,Overcast,0,2013-05-20 12:15:00
8:35 AM,57.2,55.4,94,30.08,10.0,SW,4.6,-,N/A,,Overcast,230,2013-05-20 12:35:00
8:55 AM,59.0,55.4,88,30.08,10.0,WSW,4.6,-,N/A,,Overcast,250,2013-05-20 12:55:00
9:15 AM,59.0,55.4,88,30.07,10.0,WSW,9.2,-,N/A,,Overcast,240,2013-05-20 13:15:00
9:35 AM,59.0,55.4,88,30.07,10.0,West,8.1,-,N/A,,Overcast,260,2013-05-20 13:35:00
10:15 AM,59.0,55.4,88,30.07,10.0,West,4.6,-,N/A,,Overcast,270,2013-05-20 14:15:00
10:35 AM,60.8,55.4,82,30.07,10.0,Calm,Calm,-,N/A,,Overcast,0,2013-05-20 14:35:00
10:55 AM,60.8,55.4,82,30.06,10.0,Calm,Calm,-,N/A,,Overcast,0,2013-05-20 14:55:00
11:35 AM,60.8,55.4,82,30.04,10.0,Calm,Calm,-,N/A,,Overcast,0,2013-05-20 15:35:00
11:55 AM,62.6,57.2,82,30.03,10.0,West,4.6,-,N/A,,Overcast,260,2013-05-20 15:55:00
12:15 PM,62.6,57.2,82,30.04,10.0,West,4.6,-,N/A,,Overcast,280,2013-05-20 16:15:00
12:35 PM,62.6,57.2,82,30.03,10.0,Calm,Calm,-,N/A,,Overcast,0,2013-05-20 16:35:00
12:55 PM,64.4,57.2,77,30.03,10.0,NNW,6.9,-,N/A,,Overcast,330,2013-05-20 16:55:00
1:15 PM,64.4,57.2,77,30.03,10.0,North,4.6,-,N/A,,Overcast,360,2013-05-20 17:15:00
1:35 PM,64.4,57.2,77,30.02,10.0,NNE,4.6,-,N/A,,Overcast,20,2013-05-20 17:35:00
1:55 PM,64.4,57.2,77,30.02,10.0,NNE,4.6,-,N/A,,Overcast,30,2013-05-20 17:55:00
2:15 PM,66.2,59.0,78,30.01,10.0,North,3.5,-,N/A,,Overcast,10,2013-05-20 18:15:00
2:55 PM,66.2,59.0,78,30.00,10.0,Calm,Calm,-,N/A,,Overcast,0,2013-05-20 18:55:00
3:15 PM,68.0,59.0,73,29.99,7.0,Calm,Calm,-,N/A,,Overcast,0,2013-05-20 19:15:00
3:35 PM,68.0,60.8,78,29.99,10.0,WSW,3.5,-,N/A,,Mostly Cloudy,250,2013-05-20 19:35:00
4:15 PM,69.8,60.8,73,30.00,10.0,WNW,3.5,-,N/A,,Overcast,290,2013-05-20 20:15:00
4:35 PM,69.8,60.8,73,30.00,10.0,West,3.5,-,N/A,,Mostly Cloudy,280,2013-05-20 20:35:00
4:55 PM,69.8,60.8,73,29.99,3.0,West,3.5,-,N/A,,Overcast,260,2013-05-20 20:55:00
5:15 PM,69.8,60.8,73,29.99,10.0,Calm,Calm,-,N/A,,Overcast,0,2013-05-20 21:15:00
5:35 PM,69.8,60.8,73,29.99,10.0,East,3.5,-,N/A,,Overcast,80,2013-05-20 21:35:00
5:55 PM,69.8,60.8,73,29.99,10.0,ENE,3.5,-,N/A,,Overcast,70,2013-05-20 21:55:00
6:15 PM,69.8,60.8,73,29.98,10.0,Calm,Calm,-,N/A,,Overcast,0,2013-05-20 22:15:00
6:35 PM,69.8,60.8,73,29.98,10.0,Calm,Calm,-,N/A,,Overcast,0,2013-05-20 22:35:00
6:55 PM,69.8,60.8,73,29.97,10.0,Calm,Calm,-,N/A,,Scattered Clouds,0,2013-05-20 22:55:00
7:15 PM,69.8,62.6,78,29.98,10.0,NNE,3.5,-,N/A,,Scattered Clouds,20,2013-05-20 23:15:00
7:35 PM,69.8,62.6,78,29.98,10.0,NW,3.5,-,N/A,,Partly Cloudy,320,2013-05-20 23:35:00
7:55 PM,66.2,62.6,88,29.98,10.0,Calm,Calm,-,N/A,,Clear,0,2013-05-20 23:55:00
8:15 PM,66.2,62.6,88,29.99,10.0,Calm,Calm,-,N/A,,Partly Cloudy,0,2013-05-21 00:15:00
8:35 PM,64.4,60.8,88,29.98,10.0,SE,3.5,-,N/A,,Mostly Cloudy,140,2013-05-21 00:35:00
8:55 PM,62.6,60.8,94,29.98,10.0,SE,6.9,-,N/A,,Mostly Cloudy,130,2013-05-21 00:55:00
9:15 PM,62.6,60.8,94,29.99,10.0,East,3.5,-,N/A,,Mostly Cloudy,100,2013-05-21 01:15:00
9:35 PM,62.6,60.8,94,29.99,10.0,SSE,3.5,-,N/A,,Partly Cloudy,160,2013-05-21 01:35:00
10:15 PM,60.8,59.0,94,29.99,8.0,South,5.8,-,N/A,,Clear,180,2013-05-21 02:15:00
10:35 PM,60.8,60.8,100,29.99,9.0,SE,6.9,-,N/A,,Clear,130,2013-05-21 02:35:00
10:55 PM,62.6,59.0,88,29.99,10.0,SE,6.9,-,N/A,,Clear,130,2013-05-21 02:55:00
11:15 PM,60.8,59.0,94,29.99,9.0,Calm,Calm,-,N/A,,Mostly Cloudy,0,2013-05-21 03:15:00
11:35 PM,60.8,57.2,88,30.00,10.0,SE,5.8,-,N/A,,Overcast,140,2013-05-21 03:35:00
11:55 PM,60.8,57.2,88,29.99,8.0,SE,5.8,-,N/A,,Mostly Cloudy,140,2013-05-21 03:55:00